Location: Doschendorf
(50.0069°N, 11.0602°E)
Time: 21:51:16
(UTC+00:00)

Cosmos 2278 - Pass Details

Date: 17 November 2019
Orbit: 838 x 854 km, 71.1° (Epoch: 10 December)

Event Time Altitude Azimuth Distance (km) Brightness Sun altitude
Rises 17:05:39 0° 187° (S) 3,390 7.1 -15.2°
Reaches altitude 10° 17:08:09 10° 182° (S) 2,462 6.3 -15.6°
Maximum altitude 17:13:33 47° 110° (ESE) 1,112 3.9 -16.5°
Enters shadow 17:16:59 22° 47° (NE) 1,801 4.9 -17.0°
